1485284400.06,27645,11.38,73446.5,-10.43,-42.25,-42.63,0,*66
1485284401.31,27646,11.38,73454.3,-10.43,-42.45,-42.63,0,*63
1485284402.56,27647,11.38,73454.8,-10.43,-42.31,-42.51,0,*60
1485284403.78,27648,11.38,73448.5,-10.43,-42.25,-42.51,0,*6A
1485284405.02,27649,11.38,73454.3,-10.43,-42.25,-42.45,0,*6E
1485284406.27,27650,11.38,73452.3,-10.43,-42.25,-42.45,0,*66
1485284407.51,27651,11.38,73448.8,-10.43,-42.25,-42.45,0,*67
1485284408.76,27652,11.38,73450.8,-10.43,-42.25,-42.45,0,*64
1485284410.01,27653,11.38,73448.8,-10.43,-42.25,-42.31,0,*66
1485284411.28,27654,11.38,73450.0,-10.43,-42.19,-42.45,0,*6D
1485284412.56,27655,11.38,73452.8,-10.43,-42.19,-42.31,0,*6F
1485284413.84,27656,11.38,73450.5,-10.43,-42.19,-42.31,0,*6C
1485284415.13,27657,11.38,73452.0,-10.41,-42.19,-42.45,0,*6C
1485284416.38,27658,11.38,73450.0,-10.43,-42.31,-42.51,0,*6E
1485284417.66,27659,11.38,73448.5,-10.43,-42.19,-42.31,0,*63
1485284418.91,27660,11.38,73452.3,-10.43,-42.31,-42.63,0,*64
1485284420.16,27661,11.38,73452.5,-10.43,-42.45,-42.51,0,*67
1485284421.43,27662,11.38,73450.5,-10.43,-42.19,-42.45,0,*68
1485284422.69,27663,11.38,73452.8,-10.43,-42.45,-42.83,0,*6A
1485284423.94,27664,11.38,73454.0,-10.43,-42.31,-42.51,0,*61
1485284425.19,27665,11.38,73452.3,-10.43,-42.25,-42.31,0,*63
1485284426.44,27666,11.38,73450.5,-10.43,-42.19,-42.25,0,*6A
1485284427.69,27667,11.38,73454.8,-10.43,-42.25,-42.31,0,*61
1485284428.96,27668,11.38,73452.0,-10.43,-42.05,-42.19,0,*66
1485284430.21,27669,11.38,73452.5,-10.43,-41.99,-42.19,0,*61
1485284431.46,27670,11.38,73454.8,-10.43,-42.31,-42.51,0,*64
1485284432.73,27671,11.38,73452.8,-10.43,-42.45,-42.69,0,*6D
1485284433.99,27672,11.38,73450.0,-10.43,-42.45,-42.69,0,*6E
1485284435.22,27673,11.38,73452.8,-10.43,-42.25,-42.51,0,*62
1485284436.46,27674,11.38,73454.8,-10.45,-42.25,-42.45,0,*66
1485284437.7,27675,11.38,73452.5,-10.45,-42.25,-42.45,0,*67
1485284438.94,27676,11.38,73452.5,-10.43,-42.25,-42.45,0,*62
1485284440.16,27677,11.38,73452.3,-10.45,-42.25,-42.51,0,*60
1485284441.4,27678,11.38,73454.8,-10.45,-42.19,-42.25,0,*63
1485284442.64,27679,11.38,73454.8,-10.43,-42.05,-42.25,0,*69
1485284443.86,27680,11.38,73452.5,-10.43,-41.99,-42.25,0,*69
1485284445.11,27681,11.38,73452.3,-10.43,-42.31,-42.51,0,*6A
1485284446.35,27682,11.38,73452.0,-10.43,-42.25,-42.45,0,*69
1485284447.63,27683,11.38,73450.5,-10.43,-42.19,-42.19,0,*6E
1485284448.87,27684,11.38,73448.5,-10.45,-42.51,-42.69,0,*64
1485284450.09,27685,11.38,73454.3,-10.45,-42.25,-42.51,0,*6D
1485284451.35,27686,11.38,73450.0,-10.45,-42.19,-42.45,0,*64
1485284452.58,27687,11.38,73448.0,-10.45,-42.25,-42.63,0,*6E
1485284453.82,27688,11.38,73450.3,-10.43,-42.25,-42.45,0,*63
1485284455.08,27689,11.38,73450.3,-10.45,-42.31,-42.45,0,*61
1485284456.3,27690,11.38,73450.3,-10.45,-42.51,-42.51,0,*6A
1485284457.54,27691,11.38,73448.5,-10.45,-42.45,-42.63,0,*6F
1485284458.79,27692,11.38,73448.5,-10.45,-42.25,-42.31,0,*6D
1485284460.05,27693,11.38,73452.3,-10.45,-42.19,-42.45,0,*60
1485284461.3,27694,11.38,73452.0,-10.45,-42.31,-42.63,0,*69
1485284462.54,27695,11.38,73452.5,-10.45,-42.31,-42.51,0,*69
1485284463.79,27696,11.38,73448.5,-10.45,-42.31,-42.63,0,*6B
1485284465.01,27697,11.38,73454.0,-10.45,-42.25,-42.63,0,*6F
1485284466.26,27698,11.38,73448.0,-10.45,-42.31,-42.63,0,*65
1485284467.52,27699,11.38,73452.3,-10.47,-42.31,-42.75,0,*61
1485284468.74,27700,11.38,73452.3,-10.45,-42.25,-42.51,0,*61
1485284469.95,27701,11.38,73448.0,-10.45,-41.99,-41.99,0,*63
1485284471.22,27702,11.38,73450.0,-10.45,-42.19,-42.45,0,*69
1485284472.46,27703,11.38,73452.0,-10.45,-42.45,-42.63,0,*65
1485284473.7,27704,11.38,73450.0,-10.45,-42.51,-42.69,0,*6D
1485284474.94,27705,11.38,73450.8,-10.47,-42.25,-42.37,0,*66
1485284476.2,27706,11.38,73450.5,-10.47,-42.25,-42.31,0,*63
1485284477.47,27707,11.38,73452.5,-10.45,-42.31,-42.83,0,*6C
1485284478.71,27708,11.38,73452.8,-10.45,-42.45,-42.63,0,*6E
1485284479.96,27709,11.38,73452.3,-10.45,-42.31,-42.63,0,*6C
1485284481.21,27710,11.38,73452.3,-10.47,-42.57,-42.89,0,*62
1485284482.45,27711,11.38,73454.0,-10.47,-42.37,-42.75,0,*66
1485284483.68,27712,11.38,73454.8,-10.47,-42.75,-42.89,0,*60
1485284484.92,27713,11.38,73452.5,-10.45,-42.63,-42.83,0,*6E
1485284486.2,27714,11.38,73450.0,-10.47,-42.05,-42.05,0,*65
1485284487.44,27715,11.38,73454.8,-10.45,-42.05,-42.25,0,*64
1485284488.72,27716,11.38,73450.3,-10.47,-42.31,-42.69,0,*6A
1485284489.96,27717,11.31,73450.0,-10.47,-42.25,-42.51,0,*65
1485284491.22,27718,11.38,73450.0,-10.47,-42.57,-42.89,0,*6A
1485284492.46,27719,11.38,73450.0,-10.45,-42.51,-42.83,0,*65
1485284493.72,27720,11.38,73454.3,-10.47,-42.57,-42.75,0,*62
1485284494.97,27721,11.38,73452.5,-10.47,-42.57,-42.89,0,*60
1485284496.19,27722,11.38,73452.8,-10.49,-42.51,-42.75,0,*68
1485284497.43,27723,11.38,73450.5,-10.47,-42.37,-42.75,0,*67
1485284498.67,27724,11.38,73454.0,-10.49,-42.37,-42.69,0,*63
1485284499.93,27725,11.38,73450.3,-10.47,-42.31,-42.51,0,*61
1485284501.22,27726,11.38,73450.5,-10.47,-42.31,-42.69,0,*69
1485284502.48,27727,11.38,73450.5,-10.47,-42.37,-42.69,0,*6E
1485284503.74,27728,11.38,73448.8,-10.45,-42.31,-42.69,0,*65
1485284505.01,27729,11.38,73452.0,-10.47,-42.31,-42.51,0,*6D
1485284506.26,27730,11.38,73448.5,-10.47,-42.37,-42.57,0,*65
1485284507.53,27731,11.38,73448.0,-10.49,-42.31,-42.57,0,*6C
1485284508.79,27732,11.38,73452.0,-10.47,-42.51,-42.69,0,*6A
1485284510.02,27733,11.38,73452.5,-10.49,-42.37,-42.57,0,*68
1485284511.26,27734,11.38,73454.0,-10.49,-42.37,-42.57,0,*6F
1485284512.5,27735,11.38,73452.0,-10.49,-42.37,-42.69,0,*63
1485284513.77,27736,11.38,73450.8,-10.49,-42.05,-42.31,0,*6C
1485284515.0,27737,11.38,73452.0,-10.49,-42.05,-42.25,0,*68
1485284516.25,27738,11.38,73452.3,-10.49,-42.25,-42.31,0,*60
1485284517.5,27739,11.38,73452.5,-10.49,-42.13,-42.31,0,*64
1485284518.74,27740,11.31,73448.3,-10.49,-41.93,-42.13,0,*61
1485284519.98,27741,11.31,73448.5,-10.45,-41.87,-42.05,0,*6E
1485284521.21,27742,11.38,73454.0,-10.47,-42.25,-42.37,0,*65
1485284522.44,27743,11.38,73450.3,-10.47,-42.25,-42.37,0,*64
1485284523.69,27744,11.38,73452.8,-10.49,-42.31,-42.51,0,*68
1485284524.97,27745,11.31,73448.3,-10.47,-42.31,-42.57,0,*61
1485284526.23,27746,11.38,73448.8,-10.47,-41.93,-42.13,0,*69
1485284527.48,27747,11.31,73448.0,-10.47,-42.05,-42.13,0,*64
1485284528.76,27748,11.38,73452.3,-10.47,-42.05,-42.05,0,*6C
1485284530.02,27749,11.31,73448.0,-10.47,-41.73,-41.93,0,*63
1485284531.25,27750,11.31,73450.8,-10.47,-42.25,-42.51,0,*66
1485284532.54,27751,11.38,73448.0,-10.47,-42.31,-42.57,0,*64
1485284533.8,27752,11.31,73448.0,-10.47,-42.37,-42.69,0,*6C
1485284535.05,27753,11.31,73450.8,-10.47,-42.37,-42.57,0,*60
1485284536.31,27754,11.38,73452.0,-10.47,-42.57,-42.89,0,*62
1485284537.56,27755,11.38,73450.8,-10.47,-42.37,-42.57,0,*66
1485284538.81,27756,11.38,73448.5,-10.45,-42.45,-42.63,0,*65
1485284540.05,27757,11.31,73450.0,-10.47,-42.51,-42.75,0,*64
1485284541.3,27758,11.38,73450.8,-10.47,-42.37,-42.57,0,*6B
1485284542.54,27759,11.31,73448.0,-10.47,-42.51,-42.75,0,*6A
1485284543.76,27760,11.31,73450.0,-10.49,-42.51,-42.75,0,*6E
1485284545.0,27761,11.31,73448.0,-10.49,-42.51,-42.69,0,*62
1485284546.25,27762,11.31,73448.8,-10.49,-42.31,-42.51,0,*6C
1485284547.51,27763,11.38,73450.8,-10.49,-42.57,-42.69,0,*66
1485284548.77,27764,11.38,73450.0,-10.49,-42.31,-42.57,0,*6C
1485284549.99,27765,11.38,73452.3,-10.49,-42.51,-42.75,0,*6B
1485284551.25,27766,11.38,73452.0,-10.51,-42.63,-42.83,0,*69
1485284552.54,27767,11.38,73452.0,-10.51,-42.57,-42.83,0,*6F
1485284553.76,27768,11.38,73452.3,-10.49,-42.51,-42.75,0,*66
1485284555.03,27769,11.38,73454.5,-10.51,-42.45,-42.63,0,*6C
1485284556.29,27770,11.38,73452.5,-10.51,-42.37,-42.57,0,*66
1485284557.59,27771,11.38,73452.8,-10.51,-42.19,-42.31,0,*6B
1485284558.85,27772,11.38,73452.3,-10.49,-42.05,-42.05,0,*6B
1485284560.14,27773,11.38,73454.3,-10.51,-41.81,-41.93,0,*60
1485284561.41,27774,11.31,73450.3,-10.51,-42.45,-42.75,0,*67
1485284562.67,27775,11.38,73452.8,-10.49,-42.31,-42.69,0,*61
1485284563.96,27776,11.38,73454.3,-10.51,-42.31,-42.45,0,*65
1485284565.25,27777,11.38,73452.0,-10.51,-42.31,-42.57,0,*67
1485284566.52,27778,11.38,73452.0,-10.49,-42.31,-42.69,0,*6C
1485284567.73,27779,11.31,73450.5,-10.49,-42.37,-42.89,0,*65
1485284568.96,27780,11.38,73452.3,-10.49,-42.57,-42.89,0,*65
1485284570.23,27781,11.38,73448.5,-10.51,-42.45,-42.63,0,*6A
1485284571.5,27782,11.38,73454.3,-10.51,-41.99,-42.19,0,*66
1485284572.79,27783,11.38,73450.8,-10.51,-42.57,-42.83,0,*65
1485284574.0,27784,11.38,73448.8,-10.49,-42.51,-42.89,0,*67
1485284575.25,27785,11.38,73450.3,-10.51,-42.37,-42.63,0,*6B
1485284576.54,27786,11.38,73450.8,-10.51,-42.19,-42.45,0,*60
1485284577.83,27787,11.38,73450.5,-10.51,-42.31,-42.57,0,*68
1485284579.05,27788,11.31,73448.0,-10.49,-42.37,-42.63,0,*6F
1485284580.28,27789,11.31,73450.5,-10.49,-42.45,-42.89,0,*6F
1485284581.55,27790,11.38,73450.8,-10.51,-42.57,-42.75,0,*6E
1485284582.77,27791,11.31,73450.3,-10.53,-42.37,-42.63,0,*6C
1485284584.02,27792,11.38,73452.3,-10.51,-42.37,-42.75,0,*6A
1485284585.32,27793,11.38,73452.0,-10.51,-42.19,-42.31,0,*67
1485284586.61,27794,11.38,73452.0,-10.51,-42.19,-42.45,0,*63
1485284587.9,27795,11.31,73450.0,-10.51,-42.31,-42.57,0,*6B
1485284589.17,27796,11.38,73448.5,-10.51,-41.93,-41.99,0,*62
1485284590.43,27797,11.31,73448.3,-10.51,-41.99,-42.19,0,*62
1485284591.72,27798,11.31,73448.5,-10.51,-42.31,-42.57,0,*66
1485284592.99,27799,11.38,73452.5,-10.53,-42.31,-42.57,0,*65
1485284594.21,27800,11.31,73448.5,-10.49,-42.37,-42.63,0,*60
1485284595.47,27801,11.38,73450.3,-10.51,-42.37,-42.57,0,*6F
1485284596.71,27802,11.38,73456.0,-10.51,-42.37,-42.63,0,*6B
1485284597.96,27803,11.38,73452.3,-10.49,-42.31,-42.51,0,*64
1485284599.21,27804,11.31,73452.5,-10.53,-42.31,-42.63,0,*69
1485284600.49,27805,11.31,73450.5,-10.51,-42.31,-42.45,0,*6E
1485284601.72,27806,11.31,73454.0,-10.53,-42.37,-42.63,0,*6D
1485284602.98,27807,11.31,73450.5,-10.53,-42.31,-42.57,0,*6D
1485284604.23,27808,11.31,73452.0,-10.51,-42.37,-42.75,0,*66
1485284605.47,27809,11.31,73450.0,-10.51,-42.37,-42.63,0,*60
1485284606.72,27810,11.31,73450.5,-10.53,-42.45,-42.75,0,*68
1485284607.94,27811,11.31,73450.0,-10.53,-42.37,-42.63,0,*6B
1485284609.16,27812,11.31,73450.5,-10.53,-42.37,-42.63,0,*68
1485284610.43,27813,11.38,73450.3,-10.53,-42.57,-42.95,0,*66
1485284611.7,27814,11.38,73452.3,-10.51,-42.63,-42.95,0,*64
1485284612.95,27815,11.38,73454.5,-10.53,-42.13,-42.31,0,*6E
1485284614.18,27816,11.31,73450.0,-10.53,-42.37,-42.75,0,*6B
1485284615.4,27817,11.38,73452.3,-10.53,-42.37,-42.75,0,*6A
1485284616.68,27818,11.38,73450.5,-10.55,-42.45,-42.57,0,*66
1485284617.93,27819,11.31,73452.0,-10.53,-42.19,-42.37,0,*6E
1485284619.17,27820,11.31,73450.8,-10.53,-42.37,-42.83,0,*67
1485284620.43,27821,11.31,73454.5,-10.53,-42.57,-42.83,0,*60
1485284621.72,27822,11.38,73452.8,-10.55,-42.45,-42.69,0,*62
1485284622.97,27823,11.38,73452.0,-10.53,-42.63,-42.95,0,*62
1485284624.26,27824,11.31,73452.8,-10.55,-42.45,-42.83,0,*60
1485284625.53,27825,11.38,73452.5,-10.55,-42.45,-42.63,0,*6F
1485284626.8,27826,11.38,73452.8,-10.55,-42.45,-42.63,0,*6C
1485284628.06,27827,11.31,73450.8,-10.55,-42.45,-42.51,0,*6C
1485284629.31,27828,11.31,73450.3,-10.53,-42.31,-42.63,0,*67
1485284630.53,27829,11.38,73450.3,-10.53,-42.37,-42.63,0,*60
1485284631.77,27830,11.38,73454.5,-10.53,-42.37,-42.57,0,*6F
1485284633.02,27831,11.31,73454.8,-10.53,-42.45,-42.63,0,*6C
1485284634.26,27832,11.31,73452.5,-10.55,-42.37,-42.51,0,*6D
1485284635.53,27833,11.31,73454.0,-10.55,-42.51,-42.83,0,*63
1485284636.77,27834,11.31,73452.5,-10.53,-42.57,-42.75,0,*6D
1485284638.02,27835,11.31,73452.8,-10.55,-42.37,-42.63,0,*6B
1485284639.28,27836,11.38,73452.3,-10.53,-42.31,-42.45,0,*6C
1485284640.55,27837,11.31,73450.3,-10.55,-42.19,-42.25,0,*67
1485284641.82,27838,11.38,73452.0,-10.53,-42.31,-42.57,0,*61
1485284643.07,27839,11.38,73454.5,-10.53,-42.45,-42.75,0,*63
1485284644.3,27840,11.38,73448.5,-10.53,-42.37,-42.45,0,*6B
1485284645.59,27841,11.31,73448.0,-10.55,-42.45,-42.69,0,*67
1485284646.83,27842,11.31,73450.8,-10.55,-42.63,-42.89,0,*6E
1485284648.08,27843,11.38,73450.3,-10.53,-42.45,-42.63,0,*69
1485284649.34,27844,11.38,73450.0,-10.55,-42.69,-42.89,0,*62
1485284650.6,27845,11.38,73448.3,-10.53,-42.57,-42.83,0,*62
1485284651.87,27846,11.31,73450.8,-10.55,-42.45,-42.51,0,*6B
1485284653.14,27847,11.38,73448.8,-10.55,-42.51,-42.69,0,*64
1485284654.38,27848,11.31,73450.3,-10.53,-42.37,-42.45,0,*63
1485284655.64,27849,11.31,73452.5,-10.55,-42.51,-42.69,0,*6A
1485284656.89,27850,11.31,73454.0,-10.53,-41.81,-41.99,0,*66
1485284658.15,27851,11.31,73450.3,-10.55,-42.51,-42.83,0,*67
1485284659.42,27852,11.38,73448.3,-10.55,-42.45,-42.51,0,*6E
1485284660.64,27853,11.31,73446.3,-10.53,-42.37,-42.75,0,*6A
1485284661.91,27854,11.31,73450.0,-10.55,-42.51,-42.69,0,*66
1485284663.14,27855,11.38,73448.5,-10.53,-42.37,-42.57,0,*6C
1485284664.39,27856,11.31,73450.0,-10.55,-42.37,-42.63,0,*6E
1485284665.64,27857,11.31,73448.8,-10.53,-42.45,-42.75,0,*6B
1485284666.9,27858,11.38,73452.0,-10.55,-42.51,-42.83,0,*6E
1485284668.17,27859,11.31,73450.5,-10.53,-42.31,-42.57,0,*66
1485284669.41,27860,11.38,73448.5,-10.55,-42.51,-42.89,0,*6F
1485284670.67,27861,11.38,73450.5,-10.55,-42.69,-43.01,0,*64
1485284671.91,27862,11.38,73452.3,-10.55,-42.63,-42.89,0,*6C
1485284673.2,27863,11.38,73450.8,-10.55,-42.45,-42.69,0,*67
1485284674.42,27864,11.31,73448.0,-10.53,-42.37,-42.63,0,*69
1485284675.69,27865,11.31,73448.0,-10.55,-42.51,-42.83,0,*60
1485284676.91,27866,11.38,73454.8,-10.53,-42.37,-42.63,0,*6B
1485284678.15,27867,11.31,73446.5,-10.55,-42.37,-42.51,0,*6D
1485284679.44,27868,11.31,73450.5,-10.55,-42.45,-42.69,0,*6C
1485284680.71,27869,11.31,73450.3,-10.55,-42.45,-42.63,0,*67
1485284681.96,27870,11.31,73448.0,-10.55,-42.37,-42.63,0,*6A
1485284683.23,27871,11.31,73450.0,-10.55,-42.45,-42.63,0,*6E
1485284684.52,27872,11.38,73452.5,-10.55,-42.45,-42.69,0,*67
1485284685.81,27873,11.38,73452.3,-10.55,-42.45,-42.69,0,*66
1485284687.07,27874,11.38,73452.5,-10.55,-42.51,-42.83,0,*60
1485284688.34,27875,11.31,73448.8,-10.55,-42.63,-42.83,0,*60
1485284689.6,27876,11.31,73448.5,-10.55,-42.83,-43.01,0,*66
1485284690.86,27877,11.31,73454.3,-10.55,-42.69,-43.01,0,*63
1485284692.1,27878,11.38,73454.0,-10.53,-42.37,-42.57,0,*63
1485284693.37,27879,11.31,73448.3,-10.55,-42.51,-42.69,0,*69
1485284694.64,27880,11.31,73450.5,-10.55,-42.51,-42.69,0,*6F
1485284695.88,27881,11.31,73446.0,-10.57,-42.51,-42.69,0,*6C
1485284697.14,27882,11.31,73448.0,-10.55,-42.51,-42.83,0,*69
1485284698.44,27883,11.31,73444.0,-10.55,-42.19,-42.45,0,*6E
1485284699.7,27884,11.31,73446.8,-10.53,-42.19,-42.57,0,*6C
1485284700.95,27885,11.38,73448.8,-10.55,-42.37,-42.51,0,*61
1485284702.24,27886,11.31,73448.5,-10.55,-42.45,-42.69,0,*6C
1485284703.51,27887,11.31,73446.8,-10.55,-42.45,-42.63,0,*67
1485284704.77,27888,11.31,73446.8,-10.53,-42.31,-42.57,0,*6A
1485284706.06,27889,11.31,73448.5,-10.55,-42.69,-42.83,0,*69
1485284707.32,27890,11.31,73446.3,-10.55,-42.37,-42.45,0,*60
1485284708.57,27891,11.31,73448.3,-10.55,-42.37,-42.51,0,*64
1485284709.86,27892,11.31,73448.3,-10.55,-42.45,-42.69,0,*69
1485284711.11,27893,11.31,73446.5,-10.53,-42.13,-42.31,0,*60
1485284712.37,27894,11.31,73448.8,-10.55,-42.05,-42.37,0,*60
1485284713.63,27895,11.31,73446.8,-10.53,-42.45,-42.83,0,*6C
1485284714.88,27896,11.31,73448.3,-10.53,-42.45,-42.63,0,*61
1485284716.13,27897,11.31,73448.0,-10.53,-42.13,-42.19,0,*6E
1485284717.39,27898,11.31,73450.3,-10.53,-42.57,-42.83,0,*62
1485284718.6,27899,11.31,73450.0,-10.53,-42.37,-42.37,0,*6A
1485284719.87,27900,11.31,73448.0,-10.55,-42.45,-42.75,0,*6E
1485284721.11,27901,11.31,73446.3,-10.55,-42.63,-42.89,0,*68
1485284722.38,27902,11.31,73450.3,-10.55,-42.69,-42.89,0,*61
1485284723.62,27903,11.38,73448.8,-10.53,-42.75,-42.95,0,*66
1485284724.87,27904,11.38,73448.8,-10.53,-42.63,-42.95,0,*66
1485284726.11,27905,11.31,73448.5,-10.55,-42.63,-42.89,0,*6C
1485284727.37,27906,11.31,73448.0,-10.55,-42.69,-42.89,0,*65
1485284728.64,27907,11.31,73446.8,-10.55,-42.69,-42.89,0,*64
1485284729.86,27908,11.38,73450.3,-10.57,-42.37,-42.63,0,*66
1485284731.12,27909,11.31,73448.0,-10.55,-42.63,-42.83,0,*6A
1485284732.36,27910,11.31,73446.5,-10.55,-42.51,-42.89,0,*69
1485284733.65,27911,11.31,73450.8,-10.55,-42.45,-42.69,0,*63
1485284734.92,27912,11.31,73446.8,-10.55,-42.25,-42.45,0,*68
1485284736.16,27913,11.31,73446.0,-10.55,-42.51,-42.89,0,*6A
1485284737.43,27914,11.31,73448.3,-10.55,-42.45,-42.63,0,*6C
1485284738.69,27915,11.31,73446.3,-10.55,-42.19,-42.37,0,*65
1485284739.94,27916,11.31,73444.3,-10.55,-42.37,-42.51,0,*6A
1485284741.18,27917,11.31,73448.8,-10.55,-42.37,-42.63,0,*6A
1485284742.42,27918,11.31,73446.3,-10.55,-42.63,-42.89,0,*60
1485284743.69,27919,11.31,73446.3,-10.55,-42.51,-42.83,0,*6A
1485284744.97,27920,11.31,73446.0,-10.55,-42.45,-42.83,0,*65
1485284746.24,27921,11.31,73446.0,-10.55,-42.51,-42.69,0,*65
1485284747.51,27922,11.38,73448.0,-10.55,-42.25,-42.45,0,*6B
1485284748.77,27923,11.31,73444.5,-10.55,-41.87,-42.05,0,*65
1485284750.04,27924,11.31,73446.3,-10.53,-42.31,-42.57,0,*6D
1485284751.27,27925,11.31,73444.5,-10.55,-42.63,-42.89,0,*6E
1485284752.56,27926,11.31,73444.8,-10.55,-42.45,-42.83,0,*63
1485284753.85,27927,11.31,73448.3,-10.55,-42.45,-42.69,0,*66
1485284755.11,27928,11.31,73448.0,-10.53,-42.57,-42.83,0,*68
1485284756.35,27929,11.31,73446.5,-10.55,-42.63,-42.89,0,*62
1485284757.64,27930,11.31,73444.8,-10.55,-42.05,-42.05,0,*6E
1485284758.88,27931,11.31,73448.3,-10.55,-42.25,-42.51,0,*6C
1485284760.15,27932,11.31,73450.5,-10.53,-42.45,-42.83,0,*60
1485284761.41,27933,11.31,73450.5,-10.55,-42.63,-42.83,0,*63
1485284762.66,27934,11.31,73444.5,-10.53,-42.45,-42.75,0,*6F
1485284763.92,27935,11.31,73446.3,-10.55,-42.69,-43.01,0,*64
1485284765.19,27936,11.38,73450.0,-10.55,-42.69,-42.89,0,*66
1485284766.43,27937,11.31,73448.3,-10.55,-42.37,-42.51,0,*69
1485284767.67,27938,11.31,73448.5,-10.55,-42.51,-42.89,0,*63
1485284768.91,27939,11.31,73444.8,-10.53,-42.37,-42.45,0,*64
1485284770.17,27940,11.31,73450.3,-10.55,-42.63,-42.83,0,*67
1485284771.41,27941,11.31,73446.0,-10.57,-42.69,-42.89,0,*64
1485284772.65,27942,11.31,73450.5,-10.57,-42.37,-42.45,0,*6C
1485284773.92,27943,11.31,73444.5,-10.55,-42.69,-43.01,0,*65
1485284775.16,27944,11.31,73448.0,-10.55,-42.63,-42.89,0,*69
1485284776.43,27945,11.31,73444.3,-10.55,-42.45,-42.63,0,*68
1485284777.72,27946,11.31,73446.8,-10.55,-42.45,-42.69,0,*61
1485284778.93,27947,11.31,73446.5,-10.57,-42.51,-42.89,0,*69
1485284780.2,27948,11.31,73448.5,-10.55,-42.69,-43.01,0,*6E
1485284781.47,27949,11.31,73446.3,-10.57,-42.45,-42.69,0,*6C
1485284782.68,27950,11.31,73448.0,-10.57,-42.63,-42.89,0,*6E
1485284783.92,27951,11.31,73444.0,-10.55,-42.51,-42.89,0,*6C
1485284785.21,27952,11.31,73446.5,-10.55,-42.45,-42.69,0,*64
1485284786.48,27953,11.31,73444.0,-10.55,-42.45,-42.63,0,*6F
1485284787.75,27954,11.31,73446.5,-10.55,-42.45,-42.63,0,*68
1485284789.04,27955,11.31,73444.3,-10.55,-42.45,-42.69,0,*63
1485284790.33,27956,11.31,73446.8,-10.55,-42.45,-42.83,0,*64
1485284791.57,27957,11.31,73446.0,-10.57,-42.51,-42.83,0,*62
1485284792.79,27958,11.31,73444.5,-10.57,-42.51,-42.89,0,*67
1485284794.03,27959,11.31,73444.5,-10.57,-42.51,-42.69,0,*68
1485284795.25,27960,11.31,73442.5,-10.57,-42.51,-42.89,0,*6C
1485284796.49,27961,11.31,73442.5,-10.57,-42.51,-42.83,0,*67
1485284797.71,27962,11.31,73442.0,-10.57,-42.51,-42.63,0,*6A
1485284798.93,27963,11.31,73446.0,-10.57,-42.37,-42.51,0,*6A
1485284800.2,27964,11.31,73446.5,-10.57,-42.45,-42.69,0,*63
1485284801.44,27965,11.31,73440.5,-10.57,-42.45,-42.51,0,*69
1485284802.69,27966,11.31,73442.8,-10.55,-42.51,-43.01,0,*69
1485284803.93,27967,11.31,73440.5,-10.55,-42.51,-42.89,0,*69
1485284805.21,27968,11.31,73442.0,-10.55,-42.45,-42.83,0,*69
1485284806.51,27969,11.31,73442.8,-10.55,-42.45,-42.69,0,*6C
1485284807.77,27970,11.31,73444.0,-10.55,-42.51,-42.69,0,*61
1485284809.04,27971,11.38,73448.0,-10.57,-42.45,-42.83,0,*63
1485284810.25,27972,11.31,73444.5,-10.57,-42.63,-42.89,0,*6E
1485284811.49,27973,11.31,73446.0,-10.57,-42.69,-43.01,0,*64
1485284812.76,27974,11.31,73442.3,-10.55,-42.63,-42.83,0,*60
1485284814.02,27975,11.31,73444.5,-10.55,-42.51,-42.83,0,*60
1485284815.27,27976,11.31,73444.5,-10.57,-42.45,-42.63,0,*6A
1485284816.54,27977,11.31,73444.3,-10.57,-42.45,-42.69,0,*61
1485284817.78,27978,11.31,73448.0,-10.57,-42.45,-42.51,0,*65
1485284819.02,27979,11.31,73450.0,-10.57,-42.37,-42.69,0,*6A
1485284820.26,27980,11.31,73448.5,-10.57,-42.51,-42.83,0,*68
1485284821.55,27981,11.31,73444.0,-10.55,-42.45,-42.69,0,*6A
1485284822.83,27982,11.31,73446.0,-10.57,-42.19,-42.19,0,*65
1485284824.09,27983,11.31,73444.0,-10.57,-42.45,-42.69,0,*6A
1485284825.34,27984,11.31,73444.5,-10.57,-42.51,-42.83,0,*6C
1485284826.55,27985,11.31,73444.5,-10.57,-42.63,-42.89,0,*66
1485284827.84,27986,11.31,73442.5,-10.55,-42.45,-42.69,0,*6D
1485284829.13,27987,11.31,73442.3,-10.55,-42.45,-42.69,0,*6C
1485284830.4,27988,11.31,73444.5,-10.55,-42.51,-42.83,0,*62
1485284831.66,27989,11.31,73440.8,-10.55,-42.69,-43.01,0,*63
1485284832.93,27990,11.31,73446.5,-10.55,-42.45,-42.51,0,*61
1485284834.22,27991,11.31,73446.5,-10.55,-42.45,-42.83,0,*6F
1485284835.48,27992,11.31,73446.5,-10.55,-42.51,-42.69,0,*6D
1485284836.77,27993,11.31,73444.0,-10.55,-42.45,-42.69,0,*69
1485284838.06,27994,11.31,73446.3,-10.55,-42.45,-42.69,0,*6E
1485284839.33,27995,11.31,73444.0,-10.55,-42.45,-42.63,0,*65
1485284840.58,27996,11.31,73444.3,-10.55,-42.25,-42.51,0,*61
1485284841.8,27997,11.31,73442.3,-10.57,-42.37,-42.51,0,*61
1485284843.04,27998,11.31,73444.0,-10.57,-42.25,-42.45,0,*68
1485284844.29,27999,11.31,73444.5,-10.55,-42.51,-42.75,0,*6B
1485284845.55,28000,11.31,73448.5,-10.55,-42.51,-42.83,0,*64
1485284846.8,28001,11.31,73448.8,-10.57,-42.19,-42.25,0,*67
1485284848.05,28002,11.31,73446.3,-10.55,-42.51,-42.63,0,*68
1485284849.29,28003,11.31,73450.0,-10.55,-42.25,-42.51,0,*6B
1485284850.54,28004,11.31,73448.5,-10.53,-41.99,-42.31,0,*68
1485284851.8,28005,11.31,73444.8,-10.55,-41.99,-42.05,0,*68
1485284853.05,28006,11.31,73448.0,-10.55,-42.37,-42.63,0,*6C
1485284854.29,28007,11.31,73448.8,-10.55,-42.37,-42.75,0,*6A
1485284855.56,28008,11.31,73444.3,-10.53,-42.31,-42.45,0,*66
1485284856.85,28009,11.31,73446.8,-10.55,-42.45,-42.69,0,*6C
1485284858.14,28010,11.31,73444.0,-10.55,-42.45,-42.83,0,*60
1485284859.41,28011,11.31,73442.3,-10.53,-42.19,-42.31,0,*67
1485284860.66,28012,11.31,73444.3,-10.53,-42.13,-42.19,0,*64
1485284861.93,28013,11.31,73446.0,-10.53,-42.31,-42.57,0,*6F
1485284863.15,28014,11.31,73444.3,-10.53,-42.37,-42.63,0,*69
1485284864.39,28015,11.31,73446.3,-10.53,-41.99,-42.19,0,*62
1485284865.66,28016,11.31,73446.3,-10.53,-42.45,-42.83,0,*60
1485284866.92,28017,11.31,73444.5,-10.53,-42.45,-42.83,0,*61
1485284868.19,28018,11.31,73444.0,-10.55,-42.69,-43.01,0,*6D
1485284869.46,28019,11.31,73440.8,-10.55,-42.45,-42.63,0,*67
1485284870.72,28020,11.31,73444.3,-10.55,-42.37,-42.69,0,*62
1485284872.01,28021,11.31,73450.0,-10.55,-42.45,-42.83,0,*62
1485284873.28,28022,11.31,73444.0,-10.55,-42.45,-42.63,0,*6F
1485284874.52,28023,11.31,73448.3,-10.53,-42.31,-42.37,0,*6A
1485284875.77,28024,11.31,73444.3,-10.53,-42.63,-42.95,0,*62
1485284877.01,28025,11.31,73446.5,-10.53,-42.37,-42.57,0,*6C
1485284878.27,28026,11.31,73444.5,-10.55,-42.19,-42.37,0,*63
1485284879.52,28027,11.31,73446.0,-10.55,-42.51,-42.89,0,*6B
1485284880.74,28028,11.31,73444.3,-10.53,-42.37,-42.75,0,*61
1485284881.96,28029,11.31,73446.8,-10.53,-42.37,-42.63,0,*67
1485284883.23,28030,11.31,73444.5,-10.53,-42.31,-42.57,0,*6E
1485284884.47,28031,11.31,73448.5,-10.53,-42.37,-42.83,0,*60
1485284885.73,28032,11.31,73446.0,-10.53,-41.81,-41.93,0,*6F
1485284886.95,28033,11.31,73448.0,-10.53,-42.13,-42.37,0,*6B
1485284888.19,28034,11.31,73448.5,-10.53,-42.45,-42.75,0,*69
1485284889.43,28035,11.31,73444.8,-10.53,-42.37,-42.57,0,*6D
1485284890.68,28036,11.31,73446.3,-10.53,-42.13,-42.19,0,*62
1485284891.95,28037,11.31,73450.8,-10.51,-42.31,-42.63,0,*6C
1485284893.2,28038,11.31,73446.8,-10.51,-42.37,-42.63,0,*65